[[{"header":{"parameterUnit":"m.s-1","parameterCategory":1,"la1":30.2991,"la2":30.254,"lo1":-89.0895,"lo2":-89.0444,"dy":0.0017,"dx":0.0017,"nx":28,"ny":28,"refTime":"2024-08-20T09:00:00:Z","depth":0,"parameterNumber":2,"parameterNumberName":"U-component_of_WINDS"},"data":[0,0,0,0,0,0,0,0,0,0,0,0,0,0,0,0,0,0,0,0,0,0,0,0,0,0,0,0,0,0,0,0,0,0,0,0,0,0,0,0,0,0,0,0,0,0,0,0,0,0,0,0,0,0,0,0,0,0,-0.287,-0.287,0,-0.2925,-0.2925,-0.2926,-0.2892,-0.289,-0.2889,-0.2887,-0.2947,-0.295,-0.2953,0,0,0,0,0,0,0,0,0,0,0,0,0,-0.2736,-0.2739,-0.287,-0.287,-0.2871,-0.2925,-0.2925,-0.2926,-0.2892,-0.289,-0.2888,-0.2886,-0.2946,-0.2949,-0.2953,0,0,0,0,0,0,0,0,0,0,0,0,0,-0.2793,-0.274,-0.2869,-0.286,-0.286,-0.2925,-0.2925,-0.2926,-0.2892,-0.289,-0.2888,-0.2885,-0.2944,-0.2949,-0.2953,-0.3031,0,0,-0.2968,-0.297,0,0,0,0,0,0,0,0,-0.279,-0.2798,-0.2861,-0.2861,-0.2861,-0.2899,-0.29,-0.2962,-0.2893,-0.288,-0.2887,-0.2884,-0.2933,-0.2938,-0.2954,-0.3034,-0.3036,-0.2968,-0.2971,-0.2973,-0.2974,0,0,0,0,0,0,0,-0.2786,-0.2796,-0.2891,-0.2862,-0.2862,-0.2854,-0.2859,-0.2912,-0.292,-0.2881,-0.2879,-0.2886,-0.2932,-0.295,-0.2955,-0.3037,-0.2968,-0.2972,-0.2975,-0.2977,-0.3182,-0.3184,0,0,0,0,0,0,-0.2783,-0.2792,-0.289,-0.2893,-0.2819,-0.2858,-0.2864,-0.2889,-0.2919,-0.2921,-0.2888,-0.2884,-0.2943,-0.295,-0.2957,-0.3049,-0.2973,-0.2977,-0.298,-0.3179,-0.3182,-0.3185,0,0,0,0,0,0,-0.278,-0.2792,-0.2887,-0.2842,-0.2854,-0.2863,-0.2891,-0.2892,-0.2909,-0.2924,-0.2925,-0.2904,-0.2941,-0.2951,-0.3012,-0.3051,-0.2979,-0.2983,-0.3176,-0.318,-0.3184,-0.3234,0,0,0,0,0,0,-0.2776,-0.2791,-0.282,-0.2843,-0.2856,-0.2941,-0.2894,-0.2894,-0.2917,-0.2912,-0.2939,-0.2942,-0.294,-0.3006,-0.3017,-0.3056,-0.2987,-0.3173,-0.3178,-0.3183,-0.3229,-0.324,-0.3248,0,0,0,0,0,-0.2771,-0.2833,-0.2822,-0.2834,-0.2893,-0.2944,-0.2951,-0.2948,-0.292,-0.2949,-0.2959,-0.2941,-0.3045,-0.3012,-0.3025,-0.3066,-0.317,-0.3176,-0.3182,-0.3225,-0.3238,-0.3248,0,0,0,0,0,0,-0.2816,-0.2836,-0.2824,-0.2894,-0.2917,-0.2938,-0.2975,-0.2961,-0.2994,-0.2988,-0.2983,-0.2989,-0.3053,-0.3066,-0.3029,-0.3142,-0.3103,-0.3112,-0.3131,-0.3143,-0.3153,-0.3149,-0.2991,0,0,0,0,0,-0.2833,-0.2872,-0.2888,-0.2949,-0.2961,-0.2966,-0.2988,-0.2983,-0.3007,-0.3017,-0.3031,-0.3056,-0.3094,-0.3119,-0.3155,-0.3231,-0.3236,-0.3265,-0.3274,-0.3282,-0.329,-0.333,-0.3343,-0.3205,-0.3205,-0.3205,0,0,-0.2871,-0.2887,-0.2912,-0.2958,-0.2975,-0.3016,-0.2975,-0.302,-0.305,-0.3024,-0.3083,-0.3094,-0.3121,-0.319,-0.3221,-0.3202,-0.3329,-0.329,-0.3296,-0.3299,-0.3337,-0.335,-0.3362,-0.3209,-0.3208,-0.3208,0,0,-0.296,-0.2976,-0.3028,-0.3046,-0.3072,-0.3074,-0.3087,-0.3109,-0.3115,-0.3174,-0.3155,-0.3191,-0.3257,-0.3277,-0.3295,-0.339,-0.3374,-0.3402,-0.3452,-0.3491,-0.3502,-0.3511,-0.3545,-0.3557,-0.341,-0.341,-0.341,0,-0.3004,-0.3064,-0.3057,-0.3103,-0.3123,-0.31,-0.3153,-0.3171,-0.3208,-0.3223,-0.3201,-0.3282,-0.3299,-0.3371,-0.3394,-0.341,-0.3424,-0.3399,-0.35,-0.351,-0.3519,-0.3551,-0.3563,-0.3413,-0.3413,-0.3412,-0.3412,0,-0.3116,-0.3158,-0.3196,-0.3231,-0.3256,-0.3306,-0.3306,-0.3332,-0.3325,-0.333,-0.3389,-0.3408,-0.3447,-0.3464,-0.3458,-0.3535,-0.3522,-0.3501,-0.3462,-0.3535,-0.3565,-0.3577,-0.3417,-0.3416,-0.3415,-0.3415,0,0,-0.3236,-0.3264,-0.3279,-0.3294,-0.332,-0.3353,-0.3401,-0.3437,-0.346,-0.3486,-0.3526,-0.3581,-0.356,-0.3582,-0.3577,-0.3611,-0.3684,-0.3585,-0.3586,-0.3603,-0.377,-0.3786,-0.38,-0.3673,-0.3676,-0.3678,-0.3768,0,-0.3326,-0.3409,-0.3403,-0.3481,-0.3519,-0.3497,-0.3539,-0.3559,-0.3565,-0.3599,-0.3605,-0.3644,-0.3615,-0.3627,-0.366,-0.3668,-0.3718,-0.3662,-0.3711,-0.3713,-0.3705,-0.3816,-0.3834,-0.3918,-0.3779,-0.3781,-0.3783,0,-0.3443,-0.3471,-0.3553,-0.3572,-0.3588,-0.3625,-0.3658,-0.369,-0.3713,-0.3715,-0.3737,-0.3727,-0.3775,-0.3735,-0.3801,-0.3763,-0.3783,-0.379,-0.3793,-0.3798,-0.3752,-0.3824,-0.3945,-0.3957,-0.3801,-0.38,-0.3798,0,-0.3522,-0.358,-0.3636,-0.365,-0.3674,-0.3701,-0.3712,-0.3732,-0.3754,-0.3783,-0.3797,-0.3831,-0.385,-0.3877,-0.3876,-0.3846,-0.3943,-0.3903,-0.3946,-0.3946,-0.3967,-0.3966,-0.4093,-0.398,-0.398,-0.398,-0.398,0,-0.3623,-0.3674,-0.3672,-0.3706,-0.3762,-0.3755,-0.3811,-0.3819,-0.3837,-0.3873,-0.3856,-0.389,-0.3886,-0.3921,-0.392,-0.3975,-0.3984,-0.3986,-0.3986,-0.3988,-0.3988,-0.4001,-0.3995,-0.3983,-0.3982,-0.3982,-0.3981,0,-0.3721,-0.3722,-0.3781,-0.3798,-0.3804,-0.3844,-0.3859,-0.3891,-0.3895,-0.394,-0.3951,-0.3957,-0.3996,-0.3997,-0.4043,-0.4042,-0.4109,-0.4102,-0.4101,-0.4099,-0.4142,-0.4138,-0.4282,-0.43,-0.4176,-0.4177,-0.4178,0,-0.3786,-0.3824,-0.3845,-0.3867,-0.3879,-0.3916,-0.3937,-0.3932,-0.3955,-0.3983,-0.4012,-0.405,-0.408,-0.4143,-0.4152,-0.4187,-0.418,-0.4228,-0.4185,-0.4186,-0.418,-0.4178,-0.4181,-0.4237,-0.4238,-0.4239,-0.424,0,-0.3901,-0.3898,-0.393,-0.3962,-0.3988,-0.4012,-0.4035,-0.4055,-0.4052,-0.4079,-0.4118,-0.4141,-0.4186,-0.4224,-0.4257,-0.4269,-0.4254,-0.4253,-0.4265,-0.4268,-0.4265,-0.4266,-0.4123,-0.425,-0.4249,-0.4248,-0.4248,-0.4247,-0.3983,-0.4016,-0.4035,-0.407,-0.4087,-0.4108,-0.4139,-0.4146,-0.4178,-0.4214,-0.4209,-0.4252,-0.4273,-0.4316,-0.433,-0.4365,-0.4348,-0.4365,-0.437,-0.4374,-0.4378,-0.426,-0.4371,-0.437,-0.437,-0.437,-0.437,0,-0.4097,-0.4107,-0.414,-0.4172,-0.42,-0.4182,-0.4206,-0.423,-0.4269,-0.4289,-0.4318,-0.4362,-0.4398,-0.4409,-0.4443,-0.4469,-0.4462,-0.4478,-0.4476,-0.4479,-0.4391,-0.4377,-0.4482,-0.4482,-0.4482,-0.4482,-0.4482,-0.4482,-0.4159,-0.4212,-0.4212,-0.4273,-0.4284,-0.4326,-0.4341,-0.436,-0.4376,-0.4426,-0.4455,-0.4462,-0.4478,-0.4513,-0.4545,-0.4547,-0.456,-0.4578,-0.4578,-0.4496,-0.4485,-0.4474,-0.4461,-0.4581,-0.4582,-0.4662,-0.4663,-0.4663]},{"header":{"parameterUnit":"m.s-1","parameterCategory":1,"la1":30.2991,"la2":30.254,"lo1":-89.0895,"lo2":-89.0444,"dy":0.0017,"dx":0.0017,"nx":28,"ny":28,"refTime":"2024-08-20T09:00:00:Z","depth":0,"parameterNumber":3,"parameterNumberName":"V-component_of_WINDS"},"data":[0,0,0,0,0,0,0,0,0,0,0,0,0,0,0,0,0,0,0,0,0,0,0,0,0,0,0,0,0,0,0,0,0,0,0,0,0,0,0,0,0,0,0,0,0,0,0,0,0,0,0,0,0,0,0,0,0,0,-2.4568,-2.457,0,-2.4683,-2.4684,-2.4686,-2.4717,-2.4716,-2.4716,-2.4715,-2.4828,-2.4832,-2.4836,0,0,0,0,0,0,0,0,0,0,0,0,0,-2.4373,-2.4376,-2.4568,-2.457,-2.4571,-2.4683,-2.4684,-2.4686,-2.4717,-2.4716,-2.4716,-2.4715,-2.4827,-2.4832,-2.4836,0,0,0,0,0,0,0,0,0,0,0,0,0,-2.4469,-2.4377,-2.4568,-2.46,-2.4604,-2.4682,-2.4684,-2.4686,-2.4717,-2.4716,-2.4715,-2.4714,-2.4826,-2.4831,-2.4836,-2.4889,0,0,-2.4853,-2.4855,0,0,0,0,0,0,0,0,-2.4464,-2.4477,-2.4594,-2.4598,-2.4603,-2.4685,-2.4657,-2.4754,-2.4718,-2.4674,-2.4715,-2.4714,-2.4781,-2.479,-2.4814,-2.4895,-2.49,-2.4854,-2.4857,-2.4859,-2.4861,0,0,0,0,0,0,0,-2.4457,-2.4472,-2.4614,-2.4596,-2.4601,-2.4608,-2.462,-2.4676,-2.4732,-2.4678,-2.4681,-2.4694,-2.4783,-2.4808,-2.4817,-2.4901,-2.4853,-2.4858,-2.4862,-2.4864,-2.5031,-2.5032,0,0,0,0,0,0,-2.4445,-2.4466,-2.461,-2.4617,-2.453,-2.4612,-2.4626,-2.4659,-2.4731,-2.4741,-2.4695,-2.4695,-2.48,-2.481,-2.4821,-2.4887,-2.4859,-2.4864,-2.4867,-2.503,-2.5031,-2.5032,0,0,0,0,0,0,-2.4441,-2.4458,-2.4605,-2.4542,-2.4562,-2.4617,-2.4653,-2.4662,-2.4687,-2.4744,-2.4754,-2.471,-2.4799,-2.4813,-2.4872,-2.4891,-2.4867,-2.4872,-2.5028,-2.503,-2.5032,-2.502,0,0,0,0,0,0,-2.4435,-2.4456,-2.4478,-2.4543,-2.4565,-2.4656,-2.4655,-2.4665,-2.4697,-2.4699,-2.4761,-2.477,-2.48,-2.4864,-2.4878,-2.4898,-2.4876,-2.5027,-2.5029,-2.5031,-2.5019,-2.5021,-2.5023,0,0,0,0,0,-2.4428,-2.4469,-2.4479,-2.4496,-2.4593,-2.4657,-2.467,-2.4704,-2.4698,-2.472,-2.4756,-2.4768,-2.4887,-2.487,-2.4885,-2.4908,-2.5026,-2.5028,-2.5031,-2.5018,-2.502,-2.5023,0,0,0,0,0,0,-2.4404,-2.4478,-2.449,-2.4553,-2.4599,-2.4662,-2.469,-2.4705,-2.4752,-2.4752,-2.4791,-2.4804,-2.4861,-2.489,-2.487,-2.4963,-2.4956,-2.4962,-2.4941,-2.4944,-2.4946,-2.4937,-2.488,0,0,0,0,0,-2.4406,-2.4453,-2.4515,-2.4565,-2.4587,-2.4635,-2.4664,-2.4686,-2.4735,-2.4754,-2.4794,-2.4839,-2.4887,-2.4917,-2.4964,-2.5023,-2.5037,-2.5047,-2.5049,-2.505,-2.5054,-2.5087,-2.5091,-2.5041,-2.5041,-2.5041,0,0,-2.441,-2.4457,-2.4484,-2.4561,-2.4599,-2.4645,-2.4651,-2.47,-2.4734,-2.4761,-2.4819,-2.485,-2.4904,-2.4963,-2.4991,-2.4989,-2.5071,-2.5053,-2.5054,-2.5058,-2.509,-2.5095,-2.5099,-2.5043,-2.5042,-2.5042,0,0,-2.4442,-2.4483,-2.4528,-2.4566,-2.4624,-2.4656,-2.4667,-2.4729,-2.4751,-2.4811,-2.4831,-2.4872,-2.4953,-2.499,-2.502,-2.5066,-2.5078,-2.508,-2.509,-2.5121,-2.5125,-2.5129,-2.5144,-2.5149,-2.5084,-2.5084,-2.5084,0,-2.444,-2.4512,-2.4549,-2.4598,-2.463,-2.4658,-2.4704,-2.4739,-2.4808,-2.483,-2.4827,-2.493,-2.4968,-2.5035,-2.5047,-2.507,-2.5082,-2.5072,-2.5122,-2.5126,-2.513,-2.5145,-2.515,-2.5084,-2.5084,-2.5084,-2.5084,0,-2.4506,-2.4555,-2.4585,-2.4653,-2.4689,-2.4736,-2.4779,-2.4811,-2.483,-2.4862,-2.4921,-2.4968,-2.5024,-2.5042,-2.5061,-2.5113,-2.511,-2.5114,-2.5109,-2.5134,-2.5148,-2.5154,-2.5083,-2.5083,-2.5083,-2.5084,0,0,-2.4524,-2.4613,-2.4623,-2.4654,-2.472,-2.4758,-2.4806,-2.4863,-2.4889,-2.4936,-2.4976,-2.5044,-2.5049,-2.5082,-2.5105,-2.5133,-2.5165,-2.5134,-2.5135,-2.5137,-2.5223,-2.5219,-2.5225,-2.5174,-2.5175,-2.5176,-2.5218,0,-2.4563,-2.465,-2.4685,-2.4755,-2.4801,-2.4828,-2.487,-2.4914,-2.4944,-2.4987,-2.502,-2.5067,-2.507,-2.5091,-2.5119,-2.5155,-2.5182,-2.5153,-2.521,-2.5212,-2.5195,-2.5233,-2.5228,-2.5265,-2.5224,-2.5225,-2.5226,0,-2.462,-2.4669,-2.4744,-2.4804,-2.4825,-2.4861,-2.4916,-2.4957,-2.5007,-2.5027,-2.5065,-2.5086,-2.5136,-2.5128,-2.5196,-2.5175,-2.5201,-2.5222,-2.5224,-2.5229,-2.5219,-2.5238,-2.5278,-2.5283,-2.5236,-2.5235,-2.5234,0,-2.4624,-2.4709,-2.4765,-2.479,-2.4863,-2.4888,-2.4919,-2.4968,-2.5,-2.5047,-2.5068,-2.512,-2.5148,-2.5187,-2.5222,-2.5213,-2.5286,-2.5282,-2.5303,-2.5302,-2.5316,-2.5314,-2.536,-2.5335,-2.5335,-2.5334,-2.5334,0,-2.4663,-2.4708,-2.4768,-2.4802,-2.4852,-2.4892,-2.494,-2.4973,-2.5017,-2.5056,-2.5083,-2.512,-2.5164,-2.5206,-2.5234,-2.5285,-2.5298,-2.5314,-2.5321,-2.5311,-2.5309,-2.5328,-2.5326,-2.5336,-2.5336,-2.5335,-2.5335,0,-2.4676,-2.4718,-2.4781,-2.4844,-2.4861,-2.4895,-2.4949,-2.4983,-2.5015,-2.5065,-2.5079,-2.5129,-2.518,-2.5219,-2.5285,-2.5303,-2.5357,-2.5365,-2.534,-2.5343,-2.5362,-2.536,-2.542,-2.543,-2.5399,-2.5399,-2.5399,0,-2.4698,-2.4733,-2.4801,-2.483,-2.4861,-2.4908,-2.4941,-2.4981,-2.5014,-2.5074,-2.51,-2.5153,-2.5197,-2.5277,-2.5318,-2.5368,-2.5377,-2.5395,-2.5384,-2.5373,-2.5376,-2.5373,-2.5376,-2.5395,-2.5395,-2.5395,-2.5396,0,-2.4731,-2.4751,-2.4798,-2.4852,-2.4891,-2.4935,-2.498,-2.5002,-2.505,-2.5085,-2.5138,-2.5173,-2.5241,-2.5292,-2.5347,-2.5377,-2.5394,-2.5399,-2.5406,-2.5396,-2.538,-2.5388,-2.5343,-2.5397,-2.5397,-2.5397,-2.5397,-2.5396,-2.4749,-2.4781,-2.4834,-2.4885,-2.4923,-2.4965,-2.4999,-2.5036,-2.5081,-2.514,-2.5161,-2.5215,-2.5264,-2.534,-2.5371,-2.5413,-2.5413,-2.5424,-2.5427,-2.5429,-2.5427,-2.5375,-2.5423,-2.5423,-2.5423,-2.5423,-2.5423,0,-2.4783,-2.4818,-2.4865,-2.4928,-2.4968,-2.4982,-2.5032,-2.5064,-2.5112,-2.5157,-2.5201,-2.5261,-2.5311,-2.5357,-2.5409,-2.5434,-2.5443,-2.5446,-2.5444,-2.545,-2.5424,-2.5412,-2.5438,-2.5438,-2.5438,-2.5438,-2.5438,-2.5438,-2.4805,-2.486,-2.4885,-2.4959,-2.4994,-2.5049,-2.5076,-2.5114,-2.515,-2.5217,-2.5259,-2.5289,-2.5334,-2.539,-2.5436,-2.5448,-2.5466,-2.5467,-2.548,-2.5455,-2.5452,-2.545,-2.5439,-2.547,-2.547,-2.5503,-2.5503,-2.5504]}]]